94P/Russell 4 (2010)

Japanese version
Home page
Updated on September 2, 2011

---------------------------------------------------------------------

* Profile

* Pictures

* Orbital Elements

The following orbital elements are taken from MPC 75717:

Epoch 2010 Mar. 25.0 TT = JDT 2455280.5
T 2010 Mar. 29.7464 TT                                  MPC
q   2.240269             (2000.0)            P               Q
n   0.1494008      Peri.   92.8437      -0.9546055      -0.2799475
a   3.517501       Node    70.9155      +0.2120694      -0.8786580
e   0.363108       Incl.    6.1823      +0.2091768      -0.3867681
P   6.60
From 961 observations 1984-2010, mean residual 0".6.

* Finding Charts

* Magnitudes Graph

        H = 14.5  G = 0.15             [    ,-190]  (             - 2009 Sept.20)
        m1 = 3.0 + 5 log d + 35 log r  [-190, 180]  (2009 Sept.20 - 2010 Sept.25)
        H = 14.5  G = 0.15             [ 180,    ]  (2010 Sept.25 -             )

---------------------------------------------------------------------

The orbital elements are published at the MPC Ephemerides and Orbital Elements.
The charts are made with StellaNavigator Ver.8 (AstroArts).
The magnitudes graphs are made with Comet for Windows.

---------------------------------------------------------------------

Copyright(C) Seiichi Yoshida (comet@aerith.net). All rights reserved.